Time,TemperatureF,DewpointF,PressureIn,WindDirection,WindDirectionDegrees,WindSpeedMPH,WindSpeedGustMPH,Humidity,HourlyPrecipIn,Conditions,Clouds,dailyrainin,SolarRadiationWatts/m^2,SoftwareType,DateUTC
2013-07-15 00:01:00,82.3,75.5,29.85,SE,139,17.3,17.3,80,0.00,CLR,SKC,0.00,0.0,WeatherDisplay:10.37,2013-07-15 05:01:00,
2013-07-15 00:06:00,82.4,75.6,29.85,SE,138,13.8,13.8,80,0.00,CLR,SKC,0.00,0.0,WeatherDisplay:10.37,2013-07-15 05:06:00,
2013-07-15 00:11:00,82.3,75.9,29.85,SE,126,11.5,11.5,81,0.00,CLR,SKC,0.00,0.0,WeatherDisplay:10.37,2013-07-15 05:11:00,
2013-07-15 00:16:00,82.3,75.5,29.85,SSE,166,11.0,11.0,80,0.00,CLR,SKC,0.00,0.0,WeatherDisplay:10.37,2013-07-15 05:16:00,
2013-07-15 00:21:00,82.3,75.5,29.85,SSE,158,8.1,8.1,80,0.00,CLR,SKC,0.00,0.0,WeatherDisplay:10.37,2013-07-15 05:21:00,
2013-07-15 00:26:00,82.3,75.9,29.85,SE,127,13.8,13.8,81,0.00,CLR,SKC,0.00,0.0,WeatherDisplay:10.37,2013-07-15 05:26:00,
2013-07-15 00:31:00,82.3,75.9,29.85,SSE,150,10.4,10.4,81,0.00,CLR,SKC,0.00,0.0,WeatherDisplay:10.37,2013-07-15 05:31:00,
2013-07-15 00:36:00,82.3,75.9,29.85,ESE,119,13.8,13.8,81,0.00,CLR,SKC,0.00,0.0,WeatherDisplay:10.37,2013-07-15 05:36:00,
2013-07-15 00:41:00,82.2,75.8,29.85,SE,134,11.5,11.5,81,0.00,CLR,SKC,0.00,0.0,WeatherDisplay:10.37,2013-07-15 05:41:00,
2013-07-15 00:46:00,82.2,75.8,29.85,South,184,11.5,11.5,81,0.00,CLR,SKC,0.00,0.0,WeatherDisplay:10.37,2013-07-15 05:46:00,
2013-07-15 00:51:00,82.1,75.3,29.85,SE,125,13.8,13.8,80,0.00,CLR,SKC,0.00,0.0,WeatherDisplay:10.37,2013-07-15 05:51:00,
2013-07-15 00:56:00,82.2,75.4,29.85,SE,146,14.0,14.0,80,0.00,CLR,SKC,0.00,0.0,WeatherDisplay:10.37,2013-07-15 05:56:00,
2013-07-15 01:01:00,82.2,75.4,29.85,SE,138,13.0,13.0,80,0.00,CLR,SKC,0.00,0.0,WeatherDisplay:10.37,2013-07-15 06:01:00,
2013-07-15 01:06:00,82.2,75.4,29.85,SSE,156,11.5,11.5,80,0.00,CLR,SKC,0.00,0.0,WeatherDisplay:10.37,2013-07-15 06:06:00,
2013-07-15 01:11:00,82.2,75.0,29.85,SE,138,11.5,11.5,79,0.00,CLR,SKC,0.00,0.0,WeatherDisplay:10.37,2013-07-15 06:11:00,
2013-07-15 01:16:00,82.2,74.7,29.85,SE,128,10.4,10.4,78,0.00,CLR,SKC,0.00,0.0,WeatherDisplay:10.37,2013-07-15 06:16:00,
2013-07-15 01:21:00,82.2,74.7,29.85,South,171,11.5,11.5,78,0.00,CLR,SKC,0.00,0.0,WeatherDisplay:10.37,2013-07-15 06:21:00,
2013-07-15 01:26:00,82.2,74.7,29.84,SSE,153,12.7,12.7,78,0.00,CLR,SKC,0.00,0.0,WeatherDisplay:10.37,2013-07-15 06:26:00,
2013-07-15 01:31:00,82.3,74.7,29.84,SSE,148,11.5,11.5,78,0.00,CLR,SKC,0.00,0.0,WeatherDisplay:10.37,2013-07-15 06:31:00,
2013-07-15 01:36:00,82.2,74.7,29.84,SSE,150,16.1,16.1,78,0.00,CLR,SKC,0.00,0.0,WeatherDisplay:10.37,2013-07-15 06:36:00,
2013-07-15 01:41:00,82.2,74.7,29.84,East,101,12.0,12.0,78,0.00,CLR,SKC,0.00,0.0,WeatherDisplay:10.37,2013-07-15 06:41:00,
2013-07-15 01:46:00,82.2,75.0,29.84,ESE,123,10.4,10.4,79,0.00,CLR,SKC,0.00,0.0,WeatherDisplay:10.37,2013-07-15 06:46:00,
2013-07-15 01:51:00,82.2,75.4,29.84,SE,142,9.2,9.2,80,0.00,CLR,SKC,0.00,0.0,WeatherDisplay:10.37,2013-07-15 06:51:00,
2013-07-15 01:56:00,82.1,75.3,29.84,ESE,121,11.5,11.5,80,0.00,CLR,SKC,0.00,0.0,WeatherDisplay:10.37,2013-07-15 06:56:00,
2013-07-15 02:01:00,82.0,74.8,29.84,SE,132,12.7,12.7,79,0.00,CLR,SKC,0.00,0.0,WeatherDisplay:10.37,2013-07-15 07:01:00,
2013-07-15 02:06:00,82.0,74.8,29.84,ESE,123,6.9,6.9,79,0.00,CLR,SKC,0.00,0.0,WeatherDisplay:10.37,2013-07-15 07:06:00,
2013-07-15 02:11:00,82.1,75.3,29.84,ESE,109,5.8,5.8,80,0.00,CLR,SKC,0.00,0.0,WeatherDisplay:10.37,2013-07-15 07:11:00,
2013-07-15 02:16:00,82.1,74.9,29.84,SE,146,11.5,11.5,79,0.00,CLR,SKC,0.00,0.0,WeatherDisplay:10.37,2013-07-15 07:16:00,
2013-07-15 02:21:00,82.1,74.9,29.84,SSE,151,11.5,11.5,79,0.00,CLR,SKC,0.00,0.0,WeatherDisplay:10.37,2013-07-15 07:21:00,
2013-07-15 02:26:00,82.1,74.9,29.83,SE,146,13.8,13.8,79,0.00,CLR,SKC,0.00,0.0,WeatherDisplay:10.37,2013-07-15 07:26:00,
2013-07-15 02:31:00,82.1,74.9,29.83,SE,127,10.4,10.4,79,0.00,CLR,SKC,0.00,0.0,WeatherDisplay:10.37,2013-07-15 07:31:00,
2013-07-15 02:36:00,82.1,75.3,29.83,South,190,9.2,9.2,80,0.00,CLR,SKC,0.00,0.0,WeatherDisplay:10.37,2013-07-15 07:36:00,
2013-07-15 02:41:00,82.1,75.7,29.83,SSE,165,11.5,11.5,81,0.00,CLR,SKC,0.00,0.0,WeatherDisplay:10.37,2013-07-15 07:41:00,
2013-07-15 02:46:00,82.0,75.6,29.83,SSE,160,6.0,6.0,81,0.00,CLR,SKC,0.00,0.0,WeatherDisplay:10.37,2013-07-15 07:46:00,
2013-07-15 02:51:00,82.0,76.0,29.83,South,177,7.0,7.0,82,0.00,CLR,SKC,0.00,0.0,WeatherDisplay:10.37,2013-07-15 07:51:00,
2013-07-15 02:56:00,81.8,75.8,29.83,South,172,11.0,11.0,82,0.00,CLR,SKC,0.00,0.0,WeatherDisplay:10.37,2013-07-15 07:56:00,
2013-07-15 03:01:00,81.8,75.8,29.83,SE,146,11.5,11.5,82,0.00,CLR,SKC,0.00,0.0,WeatherDisplay:10.37,2013-07-15 08:01:00,
2013-07-15 03:06:00,81.8,75.8,29.83,SSE,165,11.5,11.5,82,0.00,CLR,SKC,0.00,0.0,WeatherDisplay:10.37,2013-07-15 08:06:00,
2013-07-15 03:11:00,81.9,75.9,29.83,ESE,109,11.5,11.5,82,0.00,CLR,SKC,0.00,0.0,WeatherDisplay:10.37,2013-07-15 08:11:00,
2013-07-15 03:16:00,81.9,75.9,29.83,SE,127,12.0,12.0,82,0.00,CLR,SKC,0.00,0.0,WeatherDisplay:10.37,2013-07-15 08:16:00,
2013-07-15 03:21:00,81.9,76.2,29.83,SE,131,9.2,9.2,83,0.00,CLR,SKC,0.00,0.0,WeatherDisplay:10.37,2013-07-15 08:21:00,
2013-07-15 03:26:00,81.9,76.2,29.82,SE,139,7.0,7.0,83,0.00,CLR,SKC,0.00,0.0,WeatherDisplay:10.37,2013-07-15 08:26:00,
2013-07-15 03:31:00,81.9,76.2,29.82,SSE,168,11.5,11.5,83,0.00,CLR,SKC,0.00,0.0,WeatherDisplay:10.37,2013-07-15 08:31:00,
2013-07-15 03:36:00,81.9,76.2,29.82,ESE,117,13.8,13.8,83,0.00,CLR,SKC,0.00,0.0,WeatherDisplay:10.37,2013-07-15 08:36:00,
2013-07-15 03:41:00,81.8,76.1,29.82,SE,136,6.9,6.9,83,0.00,CLR,SKC,0.00,0.0,WeatherDisplay:10.37,2013-07-15 08:41:00,
2013-07-15 03:46:00,81.8,76.1,29.82,ESE,119,10.4,10.4,83,0.00,CLR,SKC,0.00,0.0,WeatherDisplay:10.37,2013-07-15 08:46:00,
2013-07-15 03:51:00,81.9,76.2,29.82,SSE,150,11.5,11.5,83,0.00,CLR,SKC,0.00,0.0,WeatherDisplay:10.37,2013-07-15 08:51:00,
2013-07-15 03:56:00,81.9,76.2,29.82,South,180,10.4,10.4,83,0.00,CLR,SKC,0.00,0.0,WeatherDisplay:10.37,2013-07-15 08:56:00,
2013-07-15 04:01:00,81.9,76.2,29.82,East,88,11.5,11.5,83,0.00,CLR,SKC,0.00,0.0,WeatherDisplay:10.37,2013-07-15 09:01:00,
2013-07-15 04:06:00,81.9,76.2,29.82,SE,132,9.2,9.2,83,0.00,CLR,SKC,0.00,0.0,WeatherDisplay:10.37,2013-07-15 09:06:00,
2013-07-15 04:11:00,82.0,76.7,29.83,SE,136,11.5,11.5,84,0.00,CLR,SKC,0.00,0.0,WeatherDisplay:10.37,2013-07-15 09:11:00,
2013-07-15 04:16:00,81.9,76.6,29.83,SSE,166,10.4,10.4,84,0.00,CLR,SKC,0.00,0.0,WeatherDisplay:10.37,2013-07-15 09:16:00,
2013-07-15 04:21:00,81.9,76.6,29.83,SSE,162,12.7,12.7,84,0.00,CLR,SKC,0.00,0.0,WeatherDisplay:10.37,2013-07-15 09:21:00,
2013-07-15 04:26:00,81.8,76.5,29.83,South,175,9.2,9.2,84,0.00,CLR,SKC,0.00,0.0,WeatherDisplay:10.37,2013-07-15 09:26:00,
2013-07-15 04:31:00,81.8,76.5,29.83,SE,130,12.7,12.7,84,0.00,CLR,SKC,0.00,0.0,WeatherDisplay:10.37,2013-07-15 09:31:00,
2013-07-15 04:36:00,81.9,76.6,29.83,SE,127,12.7,12.7,84,0.00,CLR,SKC,0.00,0.0,WeatherDisplay:10.37,2013-07-15 09:36:00,
2013-07-15 04:41:00,81.8,76.5,29.83,East,95,6.9,6.9,84,0.00,CLR,SKC,0.00,0.0,WeatherDisplay:10.37,2013-07-15 09:41:00,
2013-07-15 04:46:00,81.8,76.5,29.83,SE,135,11.5,11.5,84,0.00,CLR,SKC,0.00,0.0,WeatherDisplay:10.37,2013-07-15 09:46:00,
2013-07-15 04:51:00,81.8,76.5,29.83,South,190,12.7,12.7,84,0.00,CLR,SKC,0.00,0.0,WeatherDisplay:10.37,2013-07-15 09:51:00,
2013-07-15 04:56:00,81.7,76.4,29.83,NE,51,9.2,9.2,84,0.00,CLR,SKC,0.00,0.0,WeatherDisplay:10.37,2013-07-15 09:56:00,
2013-07-15 05:01:00,81.7,76.4,29.83,SSE,149,13.0,13.0,84,0.00,CLR,SKC,0.00,0.0,WeatherDisplay:10.37,2013-07-15 10:01:00,
2013-07-15 05:06:00,81.8,76.5,29.83,South,178,5.8,5.8,84,0.00,CLR,SKC,0.00,0.0,WeatherDisplay:10.37,2013-07-15 10:06:00,
2013-07-15 05:11:00,81.7,76.4,29.83,SE,144,9.2,9.2,84,0.00,CLR,SKC,0.00,0.0,WeatherDisplay:10.37,2013-07-15 10:11:00,
2013-07-15 05:16:00,81.7,76.4,29.83,SE,137,11.5,11.5,84,0.00,CLR,SKC,0.00,0.0,WeatherDisplay:10.37,2013-07-15 10:16:00,
2013-07-15 05:21:00,81.7,76.4,29.83,SSE,154,11.5,11.5,84,0.00,CLR,SKC,0.00,0.0,WeatherDisplay:10.37,2013-07-15 10:21:00,
2013-07-15 05:26:00,81.7,76.4,29.83,SW,232,9.2,9.2,84,0.00,CLR,SKC,0.00,0.0,WeatherDisplay:10.37,2013-07-15 10:26:00,
2013-07-15 05:31:00,81.7,76.4,29.83,SE,145,11.5,11.5,84,0.00,CLR,SKC,0.00,0.0,WeatherDisplay:10.37,2013-07-15 10:31:00,
2013-07-15 05:36:00,81.5,76.2,29.83,East,96,8.1,8.1,84,0.00,CLR,SKC,0.00,0.0,WeatherDisplay:10.37,2013-07-15 10:36:00,
2013-07-15 05:41:00,81.5,76.2,29.83,SSE,148,5.8,5.8,84,0.00,CLR,SKC,0.00,0.0,WeatherDisplay:10.37,2013-07-15 10:41:00,
2013-07-15 05:46:00,81.5,76.2,29.83,SSE,156,11.5,11.5,84,0.00,CLR,SKC,0.00,0.0,WeatherDisplay:10.37,2013-07-15 10:46:00,
2013-07-15 05:51:00,81.4,75.7,29.83,SSE,163,11.5,11.5,83,0.00,CLR,SKC,0.00,0.0,WeatherDisplay:10.37,2013-07-15 10:51:00,
2013-07-15 05:56:00,81.5,75.8,29.84,South,180,11.5,11.5,83,0.00,CLR,SKC,0.00,0.0,WeatherDisplay:10.37,2013-07-15 10:56:00,
2013-07-15 06:01:00,81.5,75.8,29.84,South,190,6.9,6.9,83,0.00,CLR,SKC,0.00,0.0,WeatherDisplay:10.37,2013-07-15 11:01:00,
2013-07-15 06:06:00,81.5,76.2,29.84,SSE,155,9.2,9.2,84,0.00,CLR,SKC,0.00,0.0,WeatherDisplay:10.37,2013-07-15 11:06:00,
2013-07-15 06:11:00,81.5,75.8,29.84,SSE,152,9.2,9.2,83,0.00,CLR,SKC,0.00,0.0,WeatherDisplay:10.37,2013-07-15 11:11:00,
2013-07-15 06:16:00,81.4,75.7,29.84,SE,132,9.2,9.2,83,0.00,CLR,SKC,0.00,0.0,WeatherDisplay:10.37,2013-07-15 11:16:00,
2013-07-15 06:21:00,81.4,75.7,29.84,East,97,9.2,9.2,83,0.00,CLR,SKC,0.00,0.0,WeatherDisplay:10.37,2013-07-15 11:21:00,
2013-07-15 06:26:00,81.4,75.4,29.84,SE,140,5.8,5.8,82,0.00,CLR,SKC,0.00,0.0,WeatherDisplay:10.37,2013-07-15 11:26:00,
2013-07-15 06:31:00,81.5,75.8,29.84,SSE,165,6.9,6.9,83,0.00,CLR,SKC,0.00,0.0,WeatherDisplay:10.37,2013-07-15 11:31:00,
2013-07-15 06:36:00,81.5,75.8,29.84,SSE,159,9.2,9.2,83,0.00,CLR,SKC,0.00,0.0,WeatherDisplay:10.37,2013-07-15 11:36:00,
2013-07-15 06:41:00,81.5,75.8,29.84,SE,133,8.1,8.1,83,0.00,CLR,SKC,0.00,0.0,WeatherDisplay:10.37,2013-07-15 11:41:00,
2013-07-15 06:46:00,81.5,75.8,29.84,SSE,159,8.0,8.0,83,0.00,CLR,SKC,0.00,0.0,WeatherDisplay:10.37,2013-07-15 11:46:00,
2013-07-15 06:51:00,81.5,75.8,29.84,SSE,150,9.2,9.2,83,0.00,CLR,SKC,0.00,7.0,WeatherDisplay:10.37,2013-07-15 11:51:00,
2013-07-15 06:56:00,81.5,75.8,29.84,South,171,9.2,9.2,83,0.00,CLR,SKC,0.00,12.0,WeatherDisplay:10.37,2013-07-15 11:56:00,
2013-07-15 07:01:00,81.5,75.8,29.84,South,178,11.5,11.5,83,0.00,CLR,SKC,0.00,18.0,WeatherDisplay:10.37,2013-07-15 12:01:00,
2013-07-15 07:06:00,81.5,75.8,29.84,SE,128,10.4,10.4,83,0.00,CLR,SKC,0.00,23.0,WeatherDisplay:10.37,2013-07-15 12:06:00,
2013-07-15 07:11:00,81.6,75.9,29.85,SE,134,4.6,4.6,83,0.00,CLR,SKC,0.00,30.0,WeatherDisplay:10.37,2013-07-15 12:11:00,
2013-07-15 07:16:00,81.6,75.9,29.85,South,173,10.4,10.4,83,0.00,CLR,SKC,0.00,35.0,WeatherDisplay:10.37,2013-07-15 12:16:00,
2013-07-15 07:21:00,81.7,76.0,29.85,SSE,161,9.2,9.2,83,0.00,CLR,SKC,0.00,44.0,WeatherDisplay:10.37,2013-07-15 12:21:00,
2013-07-15 07:26:00,81.7,76.0,29.85,SSE,163,10.4,10.4,83,0.00,CLR,SKC,0.00,53.0,WeatherDisplay:10.37,2013-07-15 12:26:00,
2013-07-15 07:31:00,81.8,76.1,29.85,SE,136,11.5,11.5,83,0.00,CLR,SKC,0.00,65.0,WeatherDisplay:10.37,2013-07-15 12:31:00,
2013-07-15 07:36:00,81.9,76.2,29.85,SSE,150,6.9,6.9,83,0.00,CLR,SKC,0.00,84.0,WeatherDisplay:10.37,2013-07-15 12:36:00,
2013-07-15 07:41:00,82.0,76.3,29.85,SSE,156,5.8,5.8,83,0.00,CLR,SKC,0.00,120.0,WeatherDisplay:10.37,2013-07-15 12:41:00,
2013-07-15 07:46:00,82.3,76.6,29.85,East,89,5.8,5.8,83,0.00,CLR,SKC,0.00,127.0,WeatherDisplay:10.37,2013-07-15 12:46:00,
2013-07-15 07:51:00,82.5,76.4,29.85,SSE,157,5.8,5.8,82,0.00,CLR,SKC,0.00,149.0,WeatherDisplay:10.37,2013-07-15 12:51:00,
2013-07-15 07:56:00,82.8,76.7,29.85,ESE,102,11.5,11.5,82,0.00,CLR,SKC,0.00,199.0,WeatherDisplay:10.37,2013-07-15 12:56:00,
2013-07-15 08:01:00,83.1,76.7,29.85,SSE,157,6.0,6.0,81,0.00,CLR,SKC,0.00,172.0,WeatherDisplay:10.37,2013-07-15 13:01:00,
2013-07-15 08:06:00,83.3,76.9,29.85,ESE,117,10.4,10.4,81,0.00,CLR,SKC,0.00,137.0,WeatherDisplay:10.37,2013-07-15 13:06:00,
2013-07-15 08:11:00,83.2,76.8,29.86,SE,138,10.4,10.4,81,0.00,CLR,SKC,0.00,167.0,WeatherDisplay:10.37,2013-07-15 13:11:00,
2013-07-15 08:16:00,83.4,77.0,29.86,ESE,122,11.5,11.5,81,0.00,CLR,SKC,0.00,176.0,WeatherDisplay:10.37,2013-07-15 13:16:00,
2013-07-15 08:21:00,83.6,77.1,29.86,SE,125,12.7,12.7,81,0.00,CLR,SKC,0.00,185.0,WeatherDisplay:10.37,2013-07-15 13:21:00,
2013-07-15 08:26:00,83.8,77.3,29.87,SSE,166,9.2,9.2,81,0.00,CLR,SKC,0.00,178.0,WeatherDisplay:10.37,2013-07-15 13:26:00,
2013-07-15 08:31:00,83.9,77.1,29.87,ESE,105,11.5,11.5,80,0.00,CLR,SKC,0.00,220.0,WeatherDisplay:10.37,2013-07-15 13:31:00,
2013-07-15 08:36:00,83.9,77.1,29.87,SE,140,12.7,12.7,80,0.00,CLR,SKC,0.00,281.0,WeatherDisplay:10.37,2013-07-15 13:36:00,
2013-07-15 08:41:00,84.0,77.2,29.87,ESE,123,7.0,7.0,80,0.00,CLR,SKC,0.00,332.0,WeatherDisplay:10.37,2013-07-15 13:41:00,
2013-07-15 08:46:00,84.1,77.3,29.87,SSE,167,11.0,11.0,80,0.00,CLR,SKC,0.00,417.0,WeatherDisplay:10.37,2013-07-15 13:46:00,
2013-07-15 08:51:00,84.5,77.6,29.87,SE,136,7.0,7.0,80,0.00,CLR,SKC,0.00,417.0,WeatherDisplay:10.37,2013-07-15 13:51:00,
2013-07-15 08:56:00,84.7,77.5,29.87,SSE,148,10.4,10.4,79,0.00,CLR,SKC,0.00,295.0,WeatherDisplay:10.37,2013-07-15 13:56:00,
2013-07-15 09:01:00,84.6,77.4,29.87,SSE,153,9.2,9.2,79,0.00,CLR,SKC,0.00,322.0,WeatherDisplay:10.37,2013-07-15 14:01:00,
2013-07-15 09:06:00,84.6,77.4,29.87,SSE,162,10.4,10.4,79,0.00,CLR,SKC,0.00,176.0,WeatherDisplay:10.37,2013-07-15 14:06:00,
2013-07-15 09:11:00,84.3,77.5,29.88,SE,144,11.5,11.5,80,0.00,CLR,SKC,0.00,218.0,WeatherDisplay:10.37,2013-07-15 14:11:00,
2013-07-15 09:16:00,84.1,77.3,29.88,ESE,123,7.0,7.4,80,0.00,CLR,SKC,0.00,244.0,WeatherDisplay:10.37,2013-07-15 14:16:00,
2013-07-15 09:21:00,84.2,77.4,29.88,ESE,121,11.5,11.5,80,0.00,CLR,SKC,0.00,404.0,WeatherDisplay:10.37,2013-07-15 14:21:00,
2013-07-15 09:26:00,84.3,77.1,29.88,ESE,121,10.4,10.4,79,0.00,CLR,SKC,0.00,455.0,WeatherDisplay:10.37,2013-07-15 14:26:00,
2013-07-15 09:31:00,84.6,77.4,29.88,SE,127,12.0,12.0,79,0.00,CLR,SKC,0.00,466.0,WeatherDisplay:10.37,2013-07-15 14:31:00,
2013-07-15 09:36:00,84.6,76.6,29.88,ESE,103,13.0,13.0,77,0.00,CLR,SKC,0.00,425.0,WeatherDisplay:10.37,2013-07-15 14:36:00,
2013-07-15 09:41:00,84.9,76.9,29.88,South,170,6.9,6.9,77,0.00,CLR,SKC,0.00,339.0,WeatherDisplay:10.37,2013-07-15 14:41:00,
2013-07-15 09:46:00,84.9,76.9,29.88,ESE,113,9.2,9.2,77,0.00,CLR,SKC,0.00,339.0,WeatherDisplay:10.37,2013-07-15 14:46:00,
2013-07-15 09:51:00,84.9,76.9,29.88,ESE,109,11.5,11.5,77,0.00,CLR,SKC,0.00,401.0,WeatherDisplay:10.37,2013-07-15 14:51:00,
2013-07-15 09:56:00,84.8,76.8,29.88,SE,134,11.5,11.5,77,0.00,CLR,SKC,0.00,431.0,WeatherDisplay:10.37,2013-07-15 14:56:00,
2013-07-15 10:01:00,84.8,77.2,29.88,SE,126,5.8,5.8,78,0.00,CLR,SKC,0.00,448.0,WeatherDisplay:10.37,2013-07-15 15:01:00,
2013-07-15 10:06:00,85.1,77.5,29.88,ESE,113,11.0,11.0,78,0.00,CLR,SKC,0.00,457.0,WeatherDisplay:10.37,2013-07-15 15:06:00,
2013-07-15 10:11:00,85.1,77.5,29.88,SE,124,11.5,11.5,78,0.00,CLR,SKC,0.00,378.0,WeatherDisplay:10.37,2013-07-15 15:11:00,
2013-07-15 10:16:00,84.8,77.2,29.88,SE,125,11.5,11.5,78,0.00,CLR,SKC,0.00,359.0,WeatherDisplay:10.37,2013-07-15 15:16:00,
2013-07-15 10:21:00,84.6,77.0,29.88,South,172,11.0,11.0,78,0.00,CLR,SKC,0.00,367.0,WeatherDisplay:10.37,2013-07-15 15:21:00,
2013-07-15 10:26:00,84.6,77.0,29.89,ESE,104,15.0,15.0,78,0.00,CLR,SKC,0.00,374.0,WeatherDisplay:10.37,2013-07-15 15:26:00,
2013-07-15 10:31:00,84.5,77.3,29.89,SE,134,11.5,11.5,79,0.00,CLR,SKC,0.00,519.0,WeatherDisplay:10.37,2013-07-15 15:31:00,
2013-07-15 10:37:00,84.7,77.1,29.89,SE,130,12.7,12.7,78,0.00,CLR,SKC,0.00,251.0,WeatherDisplay:10.37,2013-07-15 15:37:00,
2013-07-15 10:42:00,84.5,76.9,29.90,ESE,107,11.5,11.5,78,0.00,CLR,SKC,0.00,355.0,WeatherDisplay:10.37,2013-07-15 15:42:00,
2013-07-15 10:48:00,84.2,77.0,29.90,ESE,115,11.0,11.0,79,0.00,CLR,SKC,0.00,163.0,WeatherDisplay:10.37,2013-07-15 15:48:00,
2013-07-15 10:53:00,84.0,76.8,29.90,SE,126,10.4,10.4,79,0.00,CLR,SKC,0.00,90.0,WeatherDisplay:10.37,2013-07-15 15:53:00,
2013-07-15 10:58:00,83.4,77.3,29.90,ESE,119,5.8,5.8,82,0.00,CLR,SKC,0.00,186.0,WeatherDisplay:10.37,2013-07-15 15:58:00,
2013-07-15 11:03:00,83.1,77.4,29.90,ESE,121,13.8,13.8,83,0.00,CLR,SKC,0.00,510.0,WeatherDisplay:10.37,2013-07-15 16:03:00,
2013-07-15 11:09:00,83.2,77.9,29.90,SSE,162,8.1,8.1,84,0.00,CLR,SKC,0.00,452.0,WeatherDisplay:10.37,2013-07-15 16:09:00,
2013-07-15 11:14:00,83.1,76.3,29.90,SE,138,10.4,10.4,80,0.00,CLR,SKC,0.00,615.0,WeatherDisplay:10.37,2013-07-15 16:14:00,
2013-07-15 11:19:00,83.6,76.0,29.90,SSE,163,9.2,9.2,78,0.00,CLR,SKC,0.00,360.0,WeatherDisplay:10.37,2013-07-15 16:19:00,
2013-07-15 11:24:00,84.2,75.4,29.90,SSE,161,12.7,12.7,75,0.00,CLR,SKC,0.00,603.0,WeatherDisplay:10.37,2013-07-15 16:24:00,
2013-07-15 11:29:00,84.4,75.6,29.90,SSE,157,11.5,11.5,75,0.00,CLR,SKC,0.00,439.0,WeatherDisplay:10.37,2013-07-15 16:29:00,
2013-07-15 11:34:00,84.5,76.1,29.90,SE,135,12.7,12.7,76,0.00,CLR,SKC,0.00,315.0,WeatherDisplay:10.37,2013-07-15 16:34:00,
2013-07-15 11:39:00,84.4,76.8,29.90,ESE,117,11.5,11.5,78,0.00,CLR,SKC,0.00,323.0,WeatherDisplay:10.37,2013-07-15 16:39:00,
2013-07-15 11:44:00,84.1,76.9,29.90,ESE,118,9.2,9.2,79,0.00,CLR,SKC,0.00,452.0,WeatherDisplay:10.37,2013-07-15 16:44:00,
2013-07-15 11:50:00,84.0,77.2,29.90,East,101,10.4,10.4,80,0.00,CLR,SKC,0.00,401.0,WeatherDisplay:10.37,2013-07-15 16:50:00,
2013-07-15 11:55:00,84.1,77.3,29.90,SE,134,11.5,11.5,80,0.00,CLR,SKC,0.00,482.0,WeatherDisplay:10.37,2013-07-15 16:55:00,
2013-07-15 12:00:00,84.1,77.3,29.90,ESE,114,15.0,15.0,80,0.00,CLR,SKC,0.00,981.0,WeatherDisplay:10.37,2013-07-15 17:00:00,
2013-07-15 12:05:00,84.4,76.4,29.90,SE,125,8.0,8.0,77,0.00,CLR,SKC,0.00,315.0,WeatherDisplay:10.37,2013-07-15 17:05:00,
2013-07-15 12:11:00,84.4,76.0,29.90,ESE,123,11.5,11.5,76,0.00,CLR,SKC,0.00,301.0,WeatherDisplay:10.37,2013-07-15 17:11:00,
2013-07-15 12:16:00,84.3,76.3,29.90,SE,130,10.4,10.4,77,0.00,CLR,SKC,0.00,320.0,WeatherDisplay:10.37,2013-07-15 17:16:00,
2013-07-15 12:21:00,84.5,76.9,29.90,SSE,155,12.7,12.7,78,0.00,CLR,SKC,0.00,371.0,WeatherDisplay:10.37,2013-07-15 17:21:00,
2013-07-15 12:26:00,84.3,76.7,29.90,ESE,120,12.7,12.7,78,0.00,CLR,SKC,0.00,374.0,WeatherDisplay:10.37,2013-07-15 17:26:00,
2013-07-15 12:31:00,84.1,76.9,29.90,ESE,119,11.5,11.5,79,0.00,CLR,SKC,0.00,408.0,WeatherDisplay:10.37,2013-07-15 17:31:00,
2013-07-15 12:36:00,84.0,76.8,29.90,SSE,156,11.5,11.5,79,0.00,CLR,SKC,0.00,355.0,WeatherDisplay:10.37,2013-07-15 17:36:00,
2013-07-15 12:41:00,83.9,76.7,29.90,SE,133,15.0,15.0,79,0.00,CLR,SKC,0.00,390.0,WeatherDisplay:10.37,2013-07-15 17:41:00,
2013-07-15 12:47:00,84.0,77.2,29.90,ESE,109,12.7,12.7,80,0.00,CLR,SKC,0.00,624.0,WeatherDisplay:10.37,2013-07-15 17:47:00,
2013-07-15 12:53:00,84.2,77.4,29.90,SE,129,9.0,9.0,80,0.00,CLR,SKC,0.00,717.0,WeatherDisplay:10.37,2013-07-15 17:53:00,
2013-07-15 12:59:00,84.4,77.9,29.90,ESE,106,13.8,13.8,81,0.00,CLR,SKC,0.00,759.0,WeatherDisplay:10.37,2013-07-15 17:59:00,
2013-07-15 13:04:00,84.6,77.4,29.90,ESE,113,16.1,16.1,79,0.00,CLR,SKC,0.00,671.0,WeatherDisplay:10.37,2013-07-15 18:04:00,
2013-07-15 13:09:00,84.7,77.5,29.90,ESE,121,15.0,15.0,79,0.00,CLR,SKC,0.00,594.0,WeatherDisplay:10.37,2013-07-15 18:09:00,
2013-07-15 13:14:00,85.0,77.8,29.90,SE,134,17.3,17.3,79,0.00,CLR,SKC,0.00,543.0,WeatherDisplay:10.37,2013-07-15 18:14:00,
2013-07-15 13:20:00,84.9,77.7,29.90,ESE,123,11.5,11.5,79,0.00,CLR,SKC,0.00,534.0,WeatherDisplay:10.37,2013-07-15 18:20:00,
2013-07-15 13:25:00,84.5,77.6,29.90,SSE,148,17.3,17.3,80,0.00,CLR,SKC,0.00,519.0,WeatherDisplay:10.37,2013-07-15 18:25:00,
2013-07-15 13:30:00,84.7,77.8,29.90,SE,136,13.8,13.8,80,0.00,CLR,SKC,0.00,512.0,WeatherDisplay:10.37,2013-07-15 18:30:00,
2013-07-15 13:35:00,84.5,77.6,29.90,ESE,110,12.7,12.7,80,0.00,CLR,SKC,0.00,710.0,WeatherDisplay:10.37,2013-07-15 18:35:00,
2013-07-15 13:40:00,84.6,77.7,29.90,ESE,108,13.8,13.8,80,0.00,CLR,SKC,0.00,763.0,WeatherDisplay:10.37,2013-07-15 18:40:00,
2013-07-15 13:45:00,84.8,77.6,29.90,SE,135,12.7,12.7,79,0.00,CLR,SKC,0.00,754.0,WeatherDisplay:10.37,2013-07-15 18:45:00,
2013-07-15 13:50:00,85.0,77.8,29.90,SE,135,12.0,12.0,79,0.00,CLR,SKC,0.00,624.0,WeatherDisplay:10.37,2013-07-15 18:50:00,
2013-07-15 13:56:00,85.4,77.8,29.89,SE,136,15.0,15.0,78,0.00,CLR,SKC,0.00,571.0,WeatherDisplay:10.37,2013-07-15 18:56:00,
2013-07-15 14:01:00,85.4,77.8,29.89,SE,130,11.5,11.5,78,0.00,CLR,SKC,0.00,700.0,WeatherDisplay:10.37,2013-07-15 19:01:00,
2013-07-15 14:06:00,85.3,77.7,29.89,ESE,104,16.1,16.1,78,0.00,CLR,SKC,0.00,696.0,WeatherDisplay:10.37,2013-07-15 19:06:00,
2013-07-15 14:11:00,85.2,77.6,29.89,ESE,122,12.0,12.0,78,0.00,CLR,SKC,0.00,566.0,WeatherDisplay:10.37,2013-07-15 19:11:00,
2013-07-15 14:16:00,85.0,77.4,29.89,SE,135,15.0,15.0,78,0.00,CLR,SKC,0.00,475.0,WeatherDisplay:10.37,2013-07-15 19:16:00,
2013-07-15 14:22:00,85.1,77.5,29.89,ENE,71,11.5,11.5,78,0.00,CLR,SKC,0.00,455.0,WeatherDisplay:10.37,2013-07-15 19:22:00,
2013-07-15 14:27:00,84.9,77.3,29.89,SE,141,13.8,13.8,78,0.00,CLR,SKC,0.00,476.0,WeatherDisplay:10.37,2013-07-15 19:27:00,
2013-07-15 14:32:00,84.7,77.5,29.89,ESE,119,16.1,16.1,79,0.00,CLR,SKC,0.00,464.0,WeatherDisplay:10.37,2013-07-15 19:32:00,
2013-07-15 14:37:00,84.7,77.1,29.89,SE,130,13.8,13.8,78,0.00,CLR,SKC,0.00,496.0,WeatherDisplay:10.37,2013-07-15 19:37:00,
2013-07-15 14:42:00,84.7,77.5,29.88,ESE,111,11.5,11.5,79,0.00,CLR,SKC,0.00,529.0,WeatherDisplay:10.37,2013-07-15 19:42:00,
2013-07-15 14:47:00,84.8,77.6,29.88,ESE,120,15.0,15.0,79,0.00,CLR,SKC,0.00,563.0,WeatherDisplay:10.37,2013-07-15 19:47:00,
2013-07-15 14:53:00,84.8,77.9,29.88,ESE,118,12.7,12.7,80,0.00,CLR,SKC,0.00,531.0,WeatherDisplay:10.37,2013-07-15 19:53:00,
2013-07-15 14:58:00,84.7,77.5,29.88,SE,127,11.5,11.5,79,0.00,CLR,SKC,0.00,515.0,WeatherDisplay:10.37,2013-07-15 19:58:00,
2013-07-15 15:03:00,84.7,77.5,29.88,SE,138,13.8,13.8,79,0.00,CLR,SKC,0.00,513.0,WeatherDisplay:10.37,2013-07-15 20:03:00,
2013-07-15 15:08:00,84.7,77.5,29.88,ESE,113,12.7,12.7,79,0.00,CLR,SKC,0.00,510.0,WeatherDisplay:10.37,2013-07-15 20:08:00,
2013-07-15 15:13:00,84.8,77.6,29.87,SSE,161,11.5,11.5,79,0.00,CLR,SKC,0.00,526.0,WeatherDisplay:10.37,2013-07-15 20:13:00,
2013-07-15 15:18:00,84.7,77.5,29.87,ESE,113,13.8,13.8,79,0.00,CLR,SKC,0.00,554.0,WeatherDisplay:10.37,2013-07-15 20:18:00,
2013-07-15 15:24:00,84.8,77.6,29.87,ESE,116,16.0,16.0,79,0.00,CLR,SKC,0.00,643.0,WeatherDisplay:10.37,2013-07-15 20:24:00,
2013-07-15 15:29:00,84.7,77.1,29.87,ESE,111,13.8,13.8,78,0.00,CLR,SKC,0.00,633.0,WeatherDisplay:10.37,2013-07-15 20:29:00,
2013-07-15 15:34:00,85.0,77.4,29.87,SE,138,13.8,13.8,78,0.00,CLR,SKC,0.00,817.0,WeatherDisplay:10.37,2013-07-15 20:34:00,
2013-07-15 15:39:00,85.2,77.6,29.87,ESE,113,16.1,16.1,78,0.00,CLR,SKC,0.00,977.0,WeatherDisplay:10.37,2013-07-15 20:39:00,
2013-07-15 15:44:00,85.1,77.5,29.87,ESE,115,16.1,16.1,78,0.00,CLR,SKC,0.00,977.0,WeatherDisplay:10.37,2013-07-15 20:44:00,
2013-07-15 15:50:00,85.1,77.8,29.87,ESE,115,13.0,13.0,79,0.00,CLR,SKC,0.00,926.0,WeatherDisplay:10.37,2013-07-15 20:50:00,
2013-07-15 15:55:00,85.1,77.8,29.86,ESE,117,17.3,17.3,79,0.00,FEW,SKC,0.00,935.0,WeatherDisplay:10.37,2013-07-15 20:55:00,
2013-07-15 16:00:00,85.1,77.8,29.86,East,98,13.8,13.8,79,0.00,FEW,SKC,0.00,853.0,WeatherDisplay:10.37,2013-07-15 21:00:00,
2013-07-15 16:06:00,85.5,77.9,29.86,ESE,117,15.0,15.0,78,0.00,CLR,SKC,0.00,911.0,WeatherDisplay:10.37,2013-07-15 21:06:00,
2013-07-15 16:11:00,85.5,77.9,29.86,ESE,109,12.7,12.7,78,0.00,CLR,SKC,0.00,893.0,WeatherDisplay:10.37,2013-07-15 21:11:00,
2013-07-15 16:16:00,85.8,78.5,29.86,ESE,109,13.8,13.8,79,0.00,CLR,SKC,0.00,863.0,WeatherDisplay:10.37,2013-07-15 21:16:00,
2013-07-15 16:21:00,85.6,77.9,29.86,East,88,17.3,17.3,78,0.00,CLR,SKC,0.00,847.0,WeatherDisplay:10.37,2013-07-15 21:21:00,
2013-07-15 16:26:00,85.6,78.3,29.86,ESE,104,12.7,12.7,79,0.00,CLR,SKC,0.00,826.0,WeatherDisplay:10.37,2013-07-15 21:26:00,
2013-07-15 16:31:00,85.7,78.0,29.86,ESE,113,17.3,17.3,78,0.00,CLR,SKC,0.00,805.0,WeatherDisplay:10.37,2013-07-15 21:31:00,
2013-07-15 16:36:00,85.4,77.8,29.86,East,84,15.0,15.0,78,0.00,CLR,SKC,0.00,777.0,WeatherDisplay:10.37,2013-07-15 21:36:00,
2013-07-15 16:42:00,85.3,78.4,29.86,SE,144,15.0,15.0,80,0.00,CLR,SKC,0.00,742.0,WeatherDisplay:10.37,2013-07-15 21:42:00,
2013-07-15 16:47:00,85.4,78.1,29.86,SE,130,16.1,16.1,79,0.00,CLR,SKC,0.00,712.0,WeatherDisplay:10.37,2013-07-15 21:47:00,
2013-07-15 16:52:00,85.4,78.5,29.86,ESE,111,15.0,15.0,80,0.00,CLR,SKC,0.00,701.0,WeatherDisplay:10.37,2013-07-15 21:52:00,
2013-07-15 16:57:00,85.3,78.0,29.86,ESE,109,17.3,17.3,79,0.00,CLR,SKC,0.00,628.0,WeatherDisplay:10.37,2013-07-15 21:57:00,
2013-07-15 17:02:00,85.6,78.3,29.86,East,94,15.0,15.0,79,0.00,CLR,SKC,0.00,659.0,WeatherDisplay:10.37,2013-07-15 22:02:00,
2013-07-15 17:08:00,85.4,78.1,29.86,ESE,119,13.8,13.8,79,0.00,CLR,SKC,0.00,645.0,WeatherDisplay:10.37,2013-07-15 22:08:00,
2013-07-15 17:13:00,85.6,77.9,29.87,SE,132,17.3,17.3,78,0.00,CLR,SKC,0.00,652.0,WeatherDisplay:10.37,2013-07-15 22:13:00,
2013-07-15 17:18:00,85.4,78.1,29.87,ESE,107,16.1,16.1,79,0.00,CLR,SKC,0.00,636.0,WeatherDisplay:10.37,2013-07-15 22:18:00,
2013-07-15 17:23:00,85.4,77.8,29.87,East,96,15.0,15.0,78,0.00,CLR,SKC,0.00,624.0,WeatherDisplay:10.37,2013-07-15 22:23:00,
2013-07-15 17:28:00,85.5,77.9,29.86,ESE,115,13.8,13.8,78,0.00,CLR,SKC,0.00,612.0,WeatherDisplay:10.37,2013-07-15 22:28:00,
2013-07-15 17:33:00,85.6,77.9,29.86,ESE,119,17.3,17.3,78,0.00,CLR,SKC,0.00,587.0,WeatherDisplay:10.37,2013-07-15 22:33:00,
2013-07-15 17:38:00,85.4,78.1,29.86,ESE,122,17.3,17.3,79,0.00,CLR,SKC,0.00,575.0,WeatherDisplay:10.37,2013-07-15 22:38:00,
2013-07-15 17:43:00,85.5,78.2,29.86,East,85,12.7,12.7,79,0.00,CLR,SKC,0.00,557.0,WeatherDisplay:10.37,2013-07-15 22:43:00,
2013-07-15 17:49:00,85.2,77.9,29.86,ESE,120,16.1,16.1,79,0.00,CLR,SKC,0.00,533.0,WeatherDisplay:10.37,2013-07-15 22:49:00,
2013-07-15 17:54:00,85.1,78.2,29.86,East,79,13.8,13.8,80,0.00,CLR,SKC,0.00,515.0,WeatherDisplay:10.37,2013-07-15 22:54:00,
2013-07-15 17:59:00,85.4,78.1,29.86,SE,128,13.8,13.8,79,0.00,CLR,SKC,0.00,471.0,WeatherDisplay:10.37,2013-07-15 22:59:00,
2013-07-15 18:04:00,85.3,78.0,29.86,ESE,111,13.8,13.8,79,0.00,CLR,SKC,0.00,432.0,WeatherDisplay:10.37,2013-07-15 23:04:00,
2013-07-15 18:09:00,85.2,77.9,29.86,SE,137,18.0,18.0,79,0.00,CLR,SKC,0.00,380.0,WeatherDisplay:10.37,2013-07-15 23:09:00,
2013-07-15 18:14:00,84.9,78.0,29.86,ESE,119,12.7,12.7,80,0.00,CLR,SKC,0.00,338.0,WeatherDisplay:10.37,2013-07-15 23:14:00,
2013-07-15 18:19:00,85.0,78.1,29.86,ESE,110,14.0,14.0,80,0.00,CLR,SKC,0.00,290.0,WeatherDisplay:10.37,2013-07-15 23:19:00,
2013-07-15 18:25:00,84.7,77.8,29.86,ESE,121,19.6,19.6,80,0.00,CLR,SKC,0.00,243.0,WeatherDisplay:10.37,2013-07-15 23:25:00,
2013-07-15 18:30:00,84.6,78.1,29.86,ESE,105,13.0,20.0,81,0.00,CLR,SKC,0.00,204.0,WeatherDisplay:10.37,2013-07-15 23:30:00,
2013-07-15 18:35:00,84.3,77.8,29.86,SE,144,13.8,13.8,81,0.00,CLR,SKC,0.00,192.0,WeatherDisplay:10.37,2013-07-15 23:35:00,
2013-07-15 18:40:00,84.1,77.3,29.85,East,96,17.3,17.3,80,0.00,CLR,SKC,0.00,123.0,WeatherDisplay:10.37,2013-07-15 23:40:00,
2013-07-15 18:45:00,84.1,77.6,29.85,ESE,123,16.1,16.1,81,0.00,CLR,SKC,0.00,121.0,WeatherDisplay:10.37,2013-07-15 23:45:00,
2013-07-15 18:50:00,83.9,77.4,29.85,ESE,105,16.1,16.1,81,0.00,CLR,SKC,0.00,81.0,WeatherDisplay:10.37,2013-07-15 23:50:00,
2013-07-15 18:55:00,83.8,77.7,29.86,ESE,105,15.0,15.0,82,0.00,CLR,SKC,0.00,70.0,WeatherDisplay:10.37,2013-07-15 23:55:00,
2013-07-15 19:00:00,83.6,77.5,29.86,ENE,74,12.7,12.7,82,0.00,CLR,SKC,0.00,79.0,WeatherDisplay:10.37,2013-07-16 00:00:00,
2013-07-15 19:05:00,83.6,77.5,29.86,SE,135,15.0,15.0,82,0.00,CLR,SKC,0.00,91.0,WeatherDisplay:10.37,2013-07-16 00:05:00,
2013-07-15 19:11:00,83.6,77.5,29.87,SE,145,12.7,12.7,82,0.00,CLR,SKC,0.00,63.0,WeatherDisplay:10.37,2013-07-16 00:11:00,
2013-07-15 19:16:00,83.6,77.5,29.87,ESE,120,12.7,12.7,82,0.00,CLR,SKC,0.00,63.0,WeatherDisplay:10.37,2013-07-16 00:16:00,
2013-07-15 19:21:00,83.4,77.3,29.87,ESE,119,15.0,15.0,82,0.00,CLR,SKC,0.00,54.0,WeatherDisplay:10.37,2013-07-16 00:21:00,
2013-07-15 19:26:00,83.3,77.6,29.87,ESE,112,15.0,15.0,83,0.00,CLR,SKC,0.00,53.0,WeatherDisplay:10.37,2013-07-16 00:26:00,
2013-07-15 19:32:00,83.2,77.5,29.87,SE,135,13.8,13.8,83,0.00,CLR,SKC,0.00,46.0,WeatherDisplay:10.37,2013-07-16 00:32:00,
2013-07-15 19:37:00,83.2,77.9,29.87,SE,126,12.7,12.7,84,0.00,CLR,SKC,0.00,40.0,WeatherDisplay:10.37,2013-07-16 00:37:00,
2013-07-15 19:42:00,83.2,77.9,29.88,East,98,15.0,15.0,84,0.00,CLR,SKC,0.00,39.0,WeatherDisplay:10.37,2013-07-16 00:42:00,
2013-07-15 19:48:00,83.1,78.1,29.88,East,98,12.0,12.0,85,0.00,CLR,SKC,0.00,30.0,WeatherDisplay:10.37,2013-07-16 00:48:00,
2013-07-15 19:53:00,82.9,77.6,29.88,SE,133,9.2,9.2,84,0.00,CLR,SKC,0.00,26.0,WeatherDisplay:10.37,2013-07-16 00:53:00,
2013-07-15 19:58:00,82.9,77.6,29.89,ESE,121,11.5,11.5,84,0.00,CLR,SKC,0.00,23.0,WeatherDisplay:10.37,2013-07-16 00:58:00,
2013-07-15 20:03:00,82.9,77.6,29.89,ESE,111,12.7,12.7,84,0.00,CLR,SKC,0.00,19.0,WeatherDisplay:10.37,2013-07-16 01:03:00,
2013-07-15 20:08:00,82.9,77.6,29.89,SE,128,8.0,8.0,84,0.00,CLR,SKC,0.00,16.0,WeatherDisplay:10.37,2013-07-16 01:08:00,
2013-07-15 20:13:00,82.9,77.6,29.90,East,98,8.1,8.1,84,0.00,CLR,SKC,0.00,11.0,WeatherDisplay:10.37,2013-07-16 01:13:00,
2013-07-15 20:18:00,82.8,77.5,29.90,ESE,122,9.2,9.2,84,0.00,CLR,SKC,0.00,7.0,WeatherDisplay:10.37,2013-07-16 01:18:00,
2013-07-15 20:23:00,82.7,77.4,29.90,East,86,9.2,9.2,84,0.00,CLR,SKC,0.00,0.0,WeatherDisplay:10.37,2013-07-16 01:23:00,
2013-07-15 20:28:00,82.7,77.4,29.90,East,99,10.4,10.4,84,0.00,CLR,SKC,0.00,0.0,WeatherDisplay:10.37,2013-07-16 01:28:00,
2013-07-15 20:33:00,82.7,77.4,29.90,ESE,113,10.4,10.4,84,0.00,CLR,SKC,0.00,0.0,WeatherDisplay:10.37,2013-07-16 01:33:00,
2013-07-15 20:39:00,82.7,77.4,29.90,ESE,109,10.4,10.4,84,0.00,CLR,SKC,0.00,0.0,WeatherDisplay:10.37,2013-07-16 01:39:00,
2013-07-15 20:44:00,82.6,77.3,29.90,East,93,11.5,11.5,84,0.00,CLR,SKC,0.00,0.0,WeatherDisplay:10.37,2013-07-16 01:44:00,
2013-07-15 20:50:00,82.5,77.2,29.90,ESE,114,6.9,6.9,84,0.00,CLR,SKC,0.00,0.0,WeatherDisplay:10.37,2013-07-16 01:50:00,
2013-07-15 20:55:00,82.6,77.3,29.91,ESE,105,10.4,10.4,84,0.00,CLR,SKC,0.00,0.0,WeatherDisplay:10.37,2013-07-16 01:55:00,
2013-07-15 21:00:00,82.6,77.3,29.91,East,83,11.5,11.5,84,0.00,CLR,SKC,0.00,0.0,WeatherDisplay:10.37,2013-07-16 02:00:00,
2013-07-15 21:06:00,82.6,77.3,29.91,SE,128,6.9,6.9,84,0.00,CLR,SKC,0.00,0.0,WeatherDisplay:10.37,2013-07-16 02:06:00,
2013-07-15 21:11:00,82.6,77.6,29.91,East,80,10.4,10.4,85,0.00,CLR,SKC,0.00,0.0,WeatherDisplay:10.37,2013-07-16 02:11:00,
2013-07-15 21:16:00,82.5,77.5,29.91,ESE,113,11.5,11.5,85,0.00,CLR,SKC,0.00,0.0,WeatherDisplay:10.37,2013-07-16 02:16:00,
2013-07-15 21:21:00,82.5,77.9,29.91,East,81,12.7,12.7,86,0.00,CLR,SKC,0.00,0.0,WeatherDisplay:10.37,2013-07-16 02:21:00,
2013-07-15 21:26:00,82.4,77.4,29.91,East,98,13.8,13.8,85,0.00,CLR,SKC,0.00,0.0,WeatherDisplay:10.37,2013-07-16 02:26:00,
2013-07-15 21:32:00,82.3,77.0,29.91,ESE,123,9.2,9.2,84,0.00,CLR,SKC,0.00,0.0,WeatherDisplay:10.37,2013-07-16 02:32:00,
2013-07-15 21:37:00,82.4,77.4,29.91,East,85,11.5,11.5,85,0.00,CLR,SKC,0.00,0.0,WeatherDisplay:10.37,2013-07-16 02:37:00,
2013-07-15 21:43:00,82.5,77.5,29.92,SE,130,11.5,11.5,85,0.00,CLR,SKC,0.00,0.0,WeatherDisplay:10.37,2013-07-16 02:43:00,
2013-07-15 21:48:00,82.4,77.4,29.92,ESE,120,11.5,11.5,85,0.00,CLR,SKC,0.00,0.0,WeatherDisplay:10.37,2013-07-16 02:48:00,
2013-07-15 21:53:00,82.3,77.7,29.92,ESE,115,8.1,8.1,86,0.00,CLR,SKC,0.00,0.0,WeatherDisplay:10.37,2013-07-16 02:53:00,
2013-07-15 21:58:00,82.3,77.3,29.92,SE,129,10.4,10.4,85,0.00,CLR,SKC,0.00,0.0,WeatherDisplay:10.37,2013-07-16 02:58:00,
2013-07-15 22:04:00,82.2,77.2,29.92,ESE,109,13.0,13.0,85,0.00,CLR,SKC,0.00,0.0,WeatherDisplay:10.37,2013-07-16 03:04:00,
2013-07-15 22:09:00,82.2,77.2,29.92,ESE,109,11.5,11.5,85,0.00,CLR,SKC,0.00,0.0,WeatherDisplay:10.37,2013-07-16 03:09:00,
2013-07-15 22:14:00,82.2,77.2,29.92,ESE,103,11.5,11.5,85,0.00,CLR,SKC,0.00,0.0,WeatherDisplay:10.37,2013-07-16 03:14:00,
2013-07-15 22:19:00,82.2,77.6,29.92,SSE,152,11.5,11.5,86,0.00,CLR,SKC,0.00,0.0,WeatherDisplay:10.37,2013-07-16 03:19:00,
2013-07-15 22:24:00,82.2,77.6,29.92,SE,132,10.4,10.4,86,0.00,CLR,SKC,0.00,0.0,WeatherDisplay:10.37,2013-07-16 03:24:00,
2013-07-15 22:29:00,82.2,77.6,29.92,ESE,108,12.7,12.7,86,0.00,CLR,SKC,0.00,0.0,WeatherDisplay:10.37,2013-07-16 03:29:00,
2013-07-15 22:34:00,82.2,77.9,29.92,ESE,102,11.0,11.0,87,0.00,CLR,SKC,0.00,0.0,WeatherDisplay:10.37,2013-07-16 03:34:00,
2013-07-15 22:40:00,82.1,77.8,29.92,SE,126,11.5,11.5,87,0.00,CLR,SKC,0.00,0.0,WeatherDisplay:10.37,2013-07-16 03:40:00,
2013-07-15 22:45:00,82.1,77.8,29.92,East,87,11.5,11.5,87,0.00,CLR,SKC,0.00,0.0,WeatherDisplay:10.37,2013-07-16 03:45:00,
2013-07-15 22:50:00,82.1,77.5,29.92,ESE,118,10.0,10.0,86,0.00,CLR,SKC,0.00,0.0,WeatherDisplay:10.37,2013-07-16 03:50:00,
2013-07-15 22:57:00,82.0,77.0,29.92,ESE,116,9.2,9.2,85,0.00,CLR,SKC,0.00,0.0,WeatherDisplay:10.37,2013-07-16 03:57:00,
2013-07-15 23:01:00,82.1,77.1,29.92,ESE,109,12.7,12.7,85,0.00,CLR,SKC,0.00,0.0,WeatherDisplay:10.37,2013-07-16 04:01:00,
2013-07-15 23:06:00,82.2,77.2,29.92,ESE,109,10.4,10.4,85,0.00,CLR,SKC,0.00,0.0,WeatherDisplay:10.37,2013-07-16 04:06:00,
2013-07-15 23:11:00,82.2,77.2,29.93,ESE,115,9.2,9.2,85,0.00,CLR,SKC,0.00,0.0,WeatherDisplay:10.37,2013-07-16 04:11:00,
2013-07-15 23:16:00,82.2,77.2,29.93,ENE,78,11.0,11.0,85,0.00,CLR,SKC,0.00,0.0,WeatherDisplay:10.37,2013-07-16 04:16:00,
2013-07-15 23:21:00,82.2,77.2,29.93,SE,124,6.9,6.9,85,0.00,CLR,SKC,0.00,0.0,WeatherDisplay:10.37,2013-07-16 04:21:00,
2013-07-15 23:26:00,82.3,77.3,29.93,SE,138,11.5,11.5,85,0.00,CLR,SKC,0.00,0.0,WeatherDisplay:10.37,2013-07-16 04:26:00,
2013-07-15 23:31:00,82.0,76.3,29.93,ESE,115,11.5,11.5,83,0.00,CLR,SKC,0.00,0.0,WeatherDisplay:10.37,2013-07-16 04:31:00,
2013-07-15 23:36:00,82.0,76.3,29.93,ESE,121,13.8,13.8,83,0.00,CLR,SKC,0.00,0.0,WeatherDisplay:10.37,2013-07-16 04:36:00,
2013-07-15 23:41:00,82.0,76.3,29.93,ESE,104,12.7,12.7,83,0.00,CLR,SKC,0.00,0.0,WeatherDisplay:10.37,2013-07-16 04:41:00,
2013-07-15 23:46:00,81.9,76.2,29.93,SE,130,11.5,11.5,83,0.00,CLR,SKC,0.00,0.0,WeatherDisplay:10.37,2013-07-16 04:46:00,
2013-07-15 23:51:00,82.0,76.7,29.93,SE,127,13.8,13.8,84,0.00,CLR,SKC,0.00,0.0,WeatherDisplay:10.37,2013-07-16 04:51:00,
2013-07-15 23:56:00,82.0,77.0,29.93,ESE,107,12.7,12.7,85,0.00,CLR,SKC,0.00,0.0,WeatherDisplay:10.37,2013-07-16 04:56:00,